Location: Guadanolo
(41.9167°N, 12.9333°E)
Time: 20:49:32
(UTC+00:00)

GEOS 3 Rocket - Pass Details

Date: 16 September 2019
Orbit: 790 x 829 km, 115.0° (Epoch: 16 October)

Event Time Altitude Azimuth Distance (km) Brightness Sun altitude
Exits shadow 18:32:21 - 157° (SSE) 2,552 5.8 -14.6°
Reaches altitude 10° 18:32:53 10° 158° (SSE) 2,346 5.7 -14.7°
Maximum altitude 18:37:52 57° 237° (WSW) 927 4.1 -15.6°
Drops below altitude 10° 18:42:54 10° 316° (NW) 2,362 7.0 -16.5°
Sets 18:45:14 0° 321° (NW) 3,298 7.8 -16.9°
